Flight Track Log - Related Links

Times and Time Zones

All times are in EDT time to prevent confusion due to time zone crossing. See the SWA714 flight status page for this flight to view local times or setup timezone preferences in your user account.

Time Position Orientation Groundspeed Altitude Reporting Facility
EDT Latitude Longitude Course Direction KTS MPH feet Rate Location/Type
Sun 04:05:41 PM 29.5503 -98.4439 37° Northeast 192 221 1,600  Level Houston Center
Sun 04:06:49 PM 29.6028 -98.3989 37° Northeast 248 285 4,300 2,194 Climbing Houston Center
Sun 04:07:14 PM 29.6353 -98.3825 24° Northeast 265 305 5,000 667 Climbing Houston Center
Sun 04:07:43 PM 29.6667 -98.3625 29° Northeast 300 345 4,900  Descending Houston Center
Sun 04:08:16 PM 29.6714 -98.3183 83° East 262 302 5,000 98 Climbing Houston Center
Sun 04:08:44 PM 29.6717 -98.2800 90° East 259 298 5,000 387 Level Houston Center
Sun 04:09:18 PM 29.6872 -98.2336 69° East 272 313 5,400 875 Climbing Houston Center
Sun 04:10:20 PM 29.7642 -98.2475 351° North 291 335 6,400 2,177 Climbing Houston Center
Sun 04:11:22 PM 29.8475 -98.2825 340° North 296 341 9,900 2,565 Climbing Houston Center
Sun 04:12:24 PM 29.9314 -98.3181 340° North 322 371 11,700 2,468 Climbing Houston Center
Sun 04:13:26 PM 30.0328 -98.3606 340° North 360 414 15,000 2,806 Climbing Houston Center
Sun 04:14:28 PM 30.1267 -98.3897 345° North 358 412 17,500 2,226 Climbing Houston Center
Sun 04:15:30 PM 30.2414 -98.3728 North 384 442 19,600 2,081 Climbing Houston Center
Sun 04:16:32 PM 30.3467 -98.3583 North 410 472 21,800 2,112 Climbing Houston Center
Sun 04:17:35 PM 30.4611 -98.3417 North 410 472 24,000 1,872 Climbing Houston Center
Sun 04:18:37 PM 30.5742 -98.3250 North 406 467 25,700 1,452 Climbing Houston Center
Sun 04:19:39 PM 30.6933 -98.3069 North 419 482 27,000 629 Climbing Houston Center
Sun 04:20:41 PM 30.8356 -98.2858 North 433 498 27,000  Level Houston Center
Sun 04:21:32 PM 30.9369 -98.2731 North 430 495 27,000  Level Fort Worth Center
Sun 04:22:34 PM 31.0581 -98.2547 North 430 495 27,000  Level Fort Worth Center
Sun 04:23:34 PM 31.1625 -98.2242 14° North 430 495 27,000  Level Fort Worth Center
Sun 04:24:34 PM 31.2839 -98.1814 17° North 435 501 27,000  Level Fort Worth Center
Sun 04:25:32 PM 31.4033 -98.1411 16° North 442 509 27,000  Level Fort Worth Center
Sun 04:26:32 PM 31.5244 -98.0981 17° North 441 507 27,000 -446 Level Fort Worth Center
Sun 04:27:33 PM 31.6375 -98.0428 23° Northeast 441 507 26,100 -992 Descending Fort Worth Center
Sun 04:28:33 PM 31.7589 -97.9778 24° Northeast 441 507 25,000 -1,119 Descending Fort Worth Center
Sun 04:29:31 PM 31.8658 -97.9197 25° Northeast 430 495 23,900 -1,450 Descending Fort Worth Center
Sun 04:30:33 PM 31.9619 -97.8689 24° Northeast 418 481 22,100 -2,049 Descending Fort Worth Center
Sun 04:31:34 PM 32.0769 -97.8056 25° Northeast 418 481 19,700 -2,182 Descending Fort Worth Center
Sun 04:32:34 PM 32.1775 -97.7522 24° Northeast 407 468 17,700 -2,085 Descending Fort Worth Center
Sun 04:33:32 PM 32.2694 -97.6836 32° Northeast 386 444 15,600 -2,269 Descending Fort Worth Center
Sun 04:34:33 PM 32.3531 -97.6100 37° Northeast 375 432 13,200 -2,182 Descending Fort Worth Center
Sun 04:35:33 PM 32.4344 -97.5364 37° Northeast 375 432 11,200 -1,091 Descending Fort Worth Center
Sun 04:36:34 PM 32.5078 -97.4628 40° Northeast 356 410 11,000 -100 Descending Fort Worth Center
Sun 04:37:33 PM 32.5703 -97.3864 46° Northeast 316 364 11,000  Level Fort Worth Center
Sun 04:38:32 PM 32.6308 -97.3147 45° Northeast 306 352 11,000  Level Fort Worth Center
Sun 04:39:33 PM 32.6933 -97.2381 46° Northeast 306 352 11,000  Level Fort Worth Center
Sun 04:40:34 PM 32.7539 -97.1714 43° Northeast 301 346 11,000 -605 Level Fort Worth Center
Sun 04:41:32 PM 32.8228 -97.1736 358° North 263 303 9,800 -1,412 Descending Fort Worth Center
Sun 04:42:33 PM 32.8936 -97.1636 North 257 296 8,200 -1,706 Descending Fort Worth Center
Sun 04:43:14 PM 32.9167 -97.1000 67° East 280 322 6,900 -1,500 Descending Dallas / Fort Worth TRACON
Sun 04:44:09 PM 32.9167 -97.0167 90° East 272 313 5,800 -942 Descending Dallas / Fort Worth TRACON
Sun 04:45:15 PM 32.9167 -96.9167 90° East 245 282 5,000 -850 Descending Dallas / Fort Worth TRACON
Sun 04:46:16 PM 32.9333 -96.8500 73° East 217 250 4,000 -1,096 Descending Dallas / Fort Worth TRACON
Sun 04:47:10 PM 32.9000 -96.8667 203° Southwest 184 212 2,900 -1,000 Descending Dallas / Fort Worth TRACON
Sun 04:48:16 PM 32.9167 -96.9167 292° West 179 206 2,000 -667 Descending Dallas / Fort Worth TRACON
Sun 04:49:16 PM 32.8833 -96.9000 157° South 140 161 1,500 -500 Descending Dallas / Fort Worth TRACON
Sun 04:51:00 PM 32.8471 -96.8518 115° Southeast  Level Estimated

Login

Don't have an account? Register now (free) for customized features, flight alerts, and more!